Waarnemingen

Advertentie
Mijn weer
Cap Ferret, Frankrijk (7500): temperatuur & dauwpunt: 11.12.2018 02:00:00 - 17.12.2018 02:00:00 (CET)Cap Ferret, Frankrijk (7500): windsnelheid & windstoten: 11.12.2018 02:00:00 - 17.12.2018 02:00:00 (CET)Cap Ferret, Frankrijk (7500): windrichting: 11.12.2018 02:00:00 - 17.12.2018 02:00:00 (CET)Cap Ferret, Frankrijk (7500): luchtdruk: 11.12.2018 02:00:00 - 17.12.2018 02:00:00 (CET)Cap Ferret, Frankrijk (7500): zicht: 11.12.2018 02:00:00 - 17.12.2018 02:00:00 (CET)Cap Ferret, Frankrijk (7500): neerslag: 11.12.2018 02:00:00 - 17.12.2018 02:00:00 (CET)
Datum & Tijd tt [°C] td [°C] ff [km/u] ff [kn] fx [km/u] fx [kn] dd ppp [hPa] vv [km] rr [mm]
17.12.2018 02:00:00 11,8 7,9 42 23 63 34 W 1022,4 - 0,0
17.12.2018 01:00:00 11,9 8,6 44 24 62 33 W 1021,9 8 0,0
17.12.2018 00:00:00 10,8 8,7 40 22 79 43 WNW 1021,5 - 1,2
16.12.2018 23:00:00 12,3 8,2 46 25 69 37 W 1020,8 - 0,0
16.12.2018 22:00:00 11,9 8,0 42 23 58 31 W 1019,9 6 0,0
16.12.2018 21:00:00 11,2 8,6 43 23 74 40 W 1018,9 - 0,2
16.12.2018 20:00:00 11,5 8,4 49 27 72 39 W 1017,8 - 0,2
16.12.2018 19:00:00 10,2 8,8 51 28 104 56 W 1016,3 6 0,8
16.12.2018 18:00:00 11,3 9,4 55 30 82 44 W 1014,8 - 0,0
16.12.2018 17:00:00 10,5 9,1 32 18 60 33 WZW 1014,3 - 1,6
16.12.2018 16:00:00 12,3 10,4 29 16 44 24 ZW 1013,5 6 0,0
16.12.2018 15:00:00 12,0 10,4 22 12 39 21 ZZW 1013,3 - 0,0
16.12.2018 14:00:00 11,6 10,7 24 13 38 20 ZZW 1013,5 - 0,0
16.12.2018 13:00:00 10,8 10,0 23 12 33 18 Z 1013,8 6 0,2
16.12.2018 12:00:00 10,6 10,0 19 10 31 17 Z 1014,0 - 0,0
16.12.2018 11:00:00 11,1 10,6 14 8 37 20 Z 1014,5 - 0,2
16.12.2018 10:00:00 11,1 10,6 22 12 37 20 Z 1014,4 6 0,2
16.12.2018 09:00:00 11,6 11,1 16 9 26 14 ZW 1014,7 - 0,0
16.12.2018 08:00:00 11,3 10,8 8 4 18 10 ZZO 1014,7 - 0,2
16.12.2018 07:00:00 10,5 9,9 9 5 13 7 ZW 1015,0 6 0,0
16.12.2018 06:00:00 11,0 10,4 6 3 19 11 NNW 1014,7 - 0,6
16.12.2018 05:00:00 11,9 11,4 2 1 11 6 ZW 1015,6 - 0,4
16.12.2018 04:00:00 12,2 11,7 6 3 16 9 W 1016,4 8 0,2
16.12.2018 03:00:00 12,9 12,4 14 8 26 14 W 1016,2 - 0,0
16.12.2018 02:00:00 13,1 12,6 19 10 29 16 WZW 1016,3 - 0,4
16.12.2018 01:00:00 13,3 12,7 23 13 35 19 WZW 1016,2 8 0,4
16.12.2018 00:00:00 13,6 13,0 29 16 41 22 WZW 1016,5 - 0,6
15.12.2018 23:00:00 13,6 13,0 29 16 40 21 WZW 1016,2 - 0,0
15.12.2018 22:00:00 13,4 12,6 19 10 41 22 WZW 1015,8 10 0,4
15.12.2018 21:00:00 13,4 12,6 26 14 37 20 ZW 1015,9 - 0,0
15.12.2018 20:00:00 12,9 12,1 21 11 29 16 Z 1015,7 - 0,2
15.12.2018 19:00:00 12,5 11,9 12 7 26 14 ZZO 1015,2 10 0,0
15.12.2018 18:00:00 12,4 11,8 14 8 24 13 ZZO 1015,5 - 0,0
15.12.2018 17:00:00 12,3 11,7 15 8 24 13 ZZO 1015,7 - 0,0
15.12.2018 16:00:00 12,4 11,8 12 7 22 12 Z 1016,1 8 0,0
15.12.2018 15:00:00 12,3 11,7 12 6 27 15 Z 1016,4 - 0,0
15.12.2018 14:00:00 11,8 11,2 19 10 33 18 Z 1017,2 - 1,0
15.12.2018 13:00:00 11,2 10,6 18 10 31 17 Z 1018,0 8 0,0
15.12.2018 12:00:00 10,5 9,9 17 9 31 17 ZZO 1018,7 - 0,4
15.12.2018 11:00:00 9,5 8,9 15 8 26 14 ZZO 1019,5 - 0,0
15.12.2018 10:00:00 9,1 8,5 13 7 28 15 ZO 1019,6 - 0,2
15.12.2018 09:00:00 8,5 7,9 12 7 25 14 ZZO 1019,8 - 0,2
15.12.2018 08:00:00 8,2 7,6 14 8 29 15 ZO 1019,6 - 0,0
15.12.2018 07:00:00 8,0 7,4 13 7 24 13 ZO 1019,6 8 0,4
15.12.2018 06:00:00 7,6 6,8 12 7 22 12 ZO 1020,2 - 0,0
15.12.2018 05:00:00 6,8 6,1 8 4 18 10 O 1020,9 - 0,0
15.12.2018 04:00:00 6,4 5,5 11 6 22 12 OZO 1021,2 10 0,0
15.12.2018 03:00:00 6,6 5,5 10 5 19 10 O 1021,8 - 0,0
15.12.2018 02:00:00 6,9 5,7 14 8 22 12 OZO 1021,8 - 0,0
15.12.2018 01:00:00 6,6 5,1 11 6 18 10 OZO 1022,5 10 0,0
15.12.2018 00:00:00 7,0 4,8 9 5 20 11 ZO 1023,0 - 0,0
14.12.2018 23:00:00 7,3 5,1 10 6 19 10 OZO 1022,9 - 0,0
14.12.2018 22:00:00 6,2 5,0 5 3 9 5 OZO 1023,3 10 0,0
14.12.2018 21:00:00 5,5 4,0 6 3 10 6 OZO 1023,3 - 0,0
14.12.2018 20:00:00 6,1 4,3 5 3 11 6 O 1023,4 - 0,0
14.12.2018 19:00:00 6,7 4,7 3 2 7 4 NO 1022,9 8 0,0
14.12.2018 18:00:00 6,8 4,5 6 4 14 7 N 1023,1 - 0,0
14.12.2018 17:00:00 7,3 4,3 8 4 18 10 NO 1021,9 - 0,0
14.12.2018 16:00:00 7,9 4,7 11 6 23 12 N 1021,9 8 0,0
14.12.2018 15:00:00 8,6 5,2 11 6 24 13 N 1021,2 - 0,0
14.12.2018 14:00:00 9,0 5,4 13 7 27 15 NW 1020,9 - 0,0
14.12.2018 13:00:00 8,3 5,2 11 6 22 12 NW 1020,5 8 0,0
14.12.2018 12:00:00 7,7 6,0 15 8 23 12 NNW 1021,0 - 0,0
14.12.2018 11:00:00 7,5 6,8 7 4 18 10 N 1019,7 - 0,0
14.12.2018 10:00:00 7,2 6,6 8 4 23 13 N 1018,7 6 0,0
14.12.2018 09:00:00 7,8 7,2 10 5 31 17 N 1017,6 - 0,0
14.12.2018 08:00:00 8,7 8,2 16 8 26 14 NNW 1016,9 - 0,0
14.12.2018 07:00:00 8,0 7,6 6 3 16 9 N 1015,9 - 0,0
14.12.2018 06:00:00 8,0 7,6 8 4 15 8 NNO 1015,0 - 0,0
14.12.2018 05:00:00 7,9 7,5 8 5 13 7 NO 1014,8 - 0,0
14.12.2018 04:00:00 7,6 7,2 8 4 12 7 O 1014,1 - 0,0
14.12.2018 03:00:00 7,5 7,1 3 2 11 6 ONO 1014,0 - 0,0
14.12.2018 02:00:00 7,8 7,4 7 4 11 6 NO 1013,4 - 0,0
14.12.2018 01:00:00 8,0 7,6 6 3 13 7 NNO 1013,2 10 0,0
14.12.2018 00:00:00 8,2 7,8 6 3 10 5 NNO 1012,8 - 0,0
13.12.2018 23:00:00 8,1 7,7 0 0 15 8 N 1012,2 - 0,0
13.12.2018 22:00:00 8,0 7,6 12 7 18 10 NO 1011,5 8 0,0
13.12.2018 21:00:00 8,1 7,7 13 7 20 11 NO 1010,8 - 0,0
13.12.2018 20:00:00 8,1 7,7 12 6 21 11 NO 1010,1 - 0,0
13.12.2018 19:00:00 8,3 7,9 11 6 18 10 NO 1009,2 8 0,2
13.12.2018 18:00:00 8,4 8,0 9 5 17 9 NNO 1008,6 - 1,3
13.12.2018 17:00:00 8,4 8,0 11 6 29 15 NO 1007,4 - 1,8
13.12.2018 16:00:00 8,7 8,1 17 9 25 13 NO 1006,3 8 0,8
13.12.2018 15:00:00 8,9 8,3 15 8 21 11 ONO 1005,4 - 1,8
13.12.2018 14:00:00 8,8 8,2 9 5 19 10 ONO 1005,2 - 0,4
13.12.2018 13:00:00 8,6 8,0 11 6 23 12 O 1005,3 8 0,0
13.12.2018 12:00:00 8,3 7,7 11 6 19 10 O 1005,7 - 0,0
13.12.2018 11:00:00 8,0 7,4 12 6 22 12 O 1005,7 - 0,2
13.12.2018 10:00:00 7,8 7,0 12 7 22 12 OZO 1005,7 8 0,0
13.12.2018 09:00:00 7,6 6,8 12 7 33 18 O 1005,8 - 0,6
13.12.2018 08:00:00 7,5 6,6 14 8 31 17 O 1005,4 - 0,2
13.12.2018 07:00:00 7,6 6,7 16 8 31 17 ONO 1006,2 10 0,0
13.12.2018 06:00:00 7,4 6,5 15 8 39 21 O 1006,6 - 0,0
13.12.2018 05:00:00 7,8 6,6 18 10 36 19 O 1007,6 - 0,0
13.12.2018 04:00:00 8,0 6,6 18 10 36 20 OZO 1008,3 10 0,0
13.12.2018 03:00:00 8,1 6,4 16 9 30 16 OZO 1009,4 - 0,0
13.12.2018 02:00:00 8,5 6,5 11 6 22 12 O 1010,1 - 0,0
13.12.2018 01:00:00 9,6 7,2 14 8 27 15 OZO 1011,2 10 0,0
13.12.2018 00:00:00 9,7 7,3 14 8 24 13 OZO 1011,5 - 0,0
12.12.2018 23:00:00 9,5 7,6 12 7 22 12 OZO 1012,5 - 0,0
12.12.2018 22:00:00 9,4 8,2 12 6 19 10 OZO 1013,6 10 0,0
12.12.2018 21:00:00 8,4 7,0 6 3 10 6 OZO 1014,6 - 0,0
12.12.2018 20:00:00 7,9 6,0 5 3 9 5 ZZW 1015,3 - 0,0
12.12.2018 19:00:00 8,4 6,4 6 4 11 6 WZW 1016,1 10 0,0
12.12.2018 18:00:00 8,7 5,4 8 4 13 7 W 1016,6 - 0,0
12.12.2018 17:00:00 11,4 6,7 11 6 22 12 W 1017,0 - 0,0
12.12.2018 16:00:00 12,5 7,6 19 10 22 12 W 1017,5 10 0,0
12.12.2018 15:00:00 12,9 8,2 12 7 25 13 W 1017,8 - 0,0
12.12.2018 14:00:00 14,3 7,8 16 9 31 17 NW 1018,5 - 0,0
12.12.2018 13:00:00 13,8 8,6 17 9 29 15 WNW 1019,3 10 0,0
12.12.2018 12:00:00 12,2 7,3 19 10 44 24 WNW 1020,0 - 0,0
12.12.2018 11:00:00 13,2 9,4 22 12 38 21 WNW 1020,3 - 0,0
12.12.2018 10:00:00 12,0 8,5 26 14 40 21 WNW 1020,1 15 0,0
12.12.2018 09:00:00 11,4 8,8 29 16 45 24 W 1020,2 - 0,0
12.12.2018 08:00:00 11,1 8,7 34 18 46 25 WNW 1020,2 - 0,0
12.12.2018 07:00:00 11,1 10,0 33 18 48 26 WNW 1019,9 10 0,0
12.12.2018 06:00:00 10,7 9,6 13 7 24 13 ZZW 1019,7 - 0,2
12.12.2018 05:00:00 8,5 7,1 13 7 19 10 Z 1019,8 - 0,0
12.12.2018 04:00:00 7,4 6,2 11 6 19 11 ZZO 1020,6 10 0,0
12.12.2018 03:00:00 5,8 4,8 12 7 18 10 Z 1020,9 - 0,0
12.12.2018 02:00:00 4,3 3,0 10 5 17 9 ZO 1021,2 - 0,0
12.12.2018 01:00:00 4,4 2,7 9 5 15 8 ZO 1021,4 10 0,0
12.12.2018 00:00:00 5,8 4,1 9 5 17 9 Z 1021,7 - 0,0
11.12.2018 23:00:00 5,3 2,8 8 4 14 8 OZO 1021,5 - 0,0
11.12.2018 22:00:00 6,2 3,4 9 5 15 8 O 1021,5 10 0,0
11.12.2018 21:00:00 7,5 3,7 8 4 22 12 OZO 1021,7 - 0,0
11.12.2018 20:00:00 8,5 3,5 14 8 29 15 O 1021,0 - 0,0
11.12.2018 19:00:00 9,1 4,3 17 9 27 15 ONO 1021,0 10 0,0
11.12.2018 18:00:00 9,2 4,0 11 6 19 10 ONO 1021,1 - 0,0
11.12.2018 17:00:00 9,6 3,6 8 5 21 12 ONO 1021,5 - 0,0
11.12.2018 16:00:00 10,6 3,4 13 7 27 15 O 1021,1 - 0,0
11.12.2018 15:00:00 11,2 3,9 10 6 27 15 O 1021,6 - 0,0
11.12.2018 14:00:00 10,7 3,7 16 9 40 22 OZO 1021,9 - 0,0
11.12.2018 13:00:00 10,0 4,6 17 9 35 19 O 1022,8 10 0,0
11.12.2018 12:00:00 8,4 5,3 11 6 28 15 O 1024,2 - 0,0
11.12.2018 11:00:00 7,7 5,7 12 7 31 17 O 1025,0 - 0,0
11.12.2018 10:00:00 5,7 4,3 13 7 28 15 O 1024,9 15 0,0
11.12.2018 09:00:00 5,7 4,3 14 7 30 16 O 1024,7 - 0,0
11.12.2018 08:00:00 5,7 4,3 13 7 31 17 OZO 1024,6 - 0,0
11.12.2018 07:00:00 6,0 5,0 15 8 27 15 O 1024,8 13 0,0
11.12.2018 06:00:00 6,0 5,1 13 7 23 12 O 1025,4 - 0,0
11.12.2018 05:00:00 6,6 5,9 13 7 24 13 O 1026,3 - 0,0
11.12.2018 04:00:00 6,4 5,7 8 4 15 8 O 1027,2 13 0,0
11.12.2018 03:00:00 6,5 5,8 8 4 17 9 ONO 1027,8 - 0,0
11.12.2018 02:00:00 6,4 5,7 11 6 16 9 ONO 1028,3 - 0,0

tt = temperatuur
td = dauwpunt
ff = windsnelheid
fx = windstoten
dd = windrichting
ppp = luchtdruk
vv = zicht
rr = neerslag

Weerstations in de omgeving